Time,TemperatureF,DewpointF,PressureIn,WindDirection,WindDirectionDegrees,WindSpeedMPH,WindSpeedGustMPH,Humidity,HourlyPrecipIn,Conditions,Clouds,dailyrainin,SoftwareType,DateUTC
2013-01-27 00:01:00,29.6,26.2,29.96,WNW,302,0.0,0.0,87,0.00,,,0.06,Wunderground v.1.15,2013-01-27 07:01:00,
2013-01-27 00:06:00,29.5,26.1,29.95,WNW,302,0.0,0.0,87,0.00,,,0.00,Wunderground v.1.15,2013-01-27 07:06:00,
2013-01-27 00:14:00,29.3,25.9,29.95,WNW,302,0.0,0.0,87,0.00,,,0.00,Wunderground v.1.15,2013-01-27 07:14:00,
2013-01-27 00:19:00,29.2,25.8,29.95,WNW,302,0.0,0.0,87,0.00,,,0.00,Wunderground v.1.15,2013-01-27 07:19:00,
2013-01-27 00:25:00,29.0,25.6,29.95,WNW,302,0.0,0.0,87,0.00,,,0.00,Wunderground v.1.15,2013-01-27 07:25:00,
2013-01-27 00:31:00,29.0,25.6,29.95,WNW,302,0.0,0.0,87,0.00,,,0.00,Wunderground v.1.15,2013-01-27 07:31:00,
2013-01-27 00:37:00,28.8,25.7,29.95,WNW,302,0.0,1.0,88,0.00,,,0.00,Wunderground v.1.15,2013-01-27 07:37:00,
2013-01-27 00:42:00,28.7,25.6,29.95,WNW,302,0.0,0.0,88,0.00,,,0.00,Wunderground v.1.15,2013-01-27 07:42:00,
2013-01-27 00:48:00,28.5,25.4,29.95,WNW,302,0.0,0.0,88,0.00,,,0.00,Wunderground v.1.15,2013-01-27 07:48:00,
2013-01-27 00:53:00,28.4,25.3,29.94,WNW,302,0.0,0.0,88,0.00,,,0.00,Wunderground v.1.15,2013-01-27 07:53:00,
2013-01-27 00:59:00,28.3,25.2,29.94,WNW,302,0.0,0.0,88,0.00,,,0.00,Wunderground v.1.15,2013-01-27 07:59:00,
2013-01-27 01:05:00,28.0,24.9,29.94,WNW,302,0.0,2.0,88,0.00,,,0.00,Wunderground v.1.15,2013-01-27 08:05:00,
2013-01-27 01:10:00,27.7,24.6,29.95,WNW,302,1.0,1.0,88,0.00,,,0.00,Wunderground v.1.15,2013-01-27 08:10:00,
2013-01-27 01:16:00,27.5,24.7,29.95,WNW,302,1.0,2.0,89,0.00,,,0.00,Wunderground v.1.15,2013-01-27 08:16:00,
2013-01-27 01:22:00,27.3,24.5,29.95,WNW,302,1.0,2.0,89,0.00,,,0.00,Wunderground v.1.15,2013-01-27 08:22:00,
2013-01-27 01:27:00,27.3,24.5,29.95,WNW,302,1.0,2.0,89,0.00,,,0.00,Wunderground v.1.15,2013-01-27 08:27:00,
2013-01-27 01:33:00,27.3,24.5,29.94,WNW,302,0.0,1.0,89,0.00,,,0.00,Wunderground v.1.15,2013-01-27 08:33:00,
2013-01-27 01:39:00,27.2,24.4,29.95,WNW,302,1.0,2.0,89,0.00,,,0.00,Wunderground v.1.15,2013-01-27 08:39:00,
2013-01-27 01:45:00,26.9,24.1,29.94,WNW,302,0.0,1.0,89,0.00,,,0.00,Wunderground v.1.15,2013-01-27 08:45:00,
2013-01-27 01:51:00,26.9,24.1,29.95,WNW,302,0.0,0.0,89,0.00,,,0.00,Wunderground v.1.15,2013-01-27 08:51:00,
2013-01-27 01:56:00,26.9,24.1,29.94,WNW,302,0.0,1.0,89,0.00,,,0.00,Wunderground v.1.15,2013-01-27 08:56:00,
2013-01-27 02:02:00,27.0,24.2,29.95,WNW,302,0.0,0.0,89,0.00,,,0.00,Wunderground v.1.15,2013-01-27 09:02:00,
2013-01-27 02:08:00,27.0,24.2,29.95,WNW,302,0.0,1.0,89,0.00,,,0.00,Wunderground v.1.15,2013-01-27 09:08:00,
2013-01-27 02:13:00,27.0,24.2,29.95,WNW,302,0.0,0.0,89,0.00,,,0.00,Wunderground v.1.15,2013-01-27 09:13:00,
2013-01-27 02:19:00,26.9,24.1,29.94,WNW,302,0.0,1.0,89,0.00,,,0.00,Wunderground v.1.15,2013-01-27 09:19:00,
2013-01-27 02:25:00,26.9,24.1,29.94,WNW,302,0.0,0.0,89,0.00,,,0.00,Wunderground v.1.15,2013-01-27 09:25:00,
2013-01-27 02:31:00,26.9,24.1,29.94,WNW,302,0.0,0.0,89,0.00,,,0.00,Wunderground v.1.15,2013-01-27 09:31:00,
2013-01-27 02:37:00,26.9,24.1,29.94,WNW,302,0.0,0.0,89,0.00,,,0.00,Wunderground v.1.15,2013-01-27 09:37:00,
2013-01-27 02:42:00,26.9,24.1,29.94,WNW,302,0.0,0.0,89,0.00,,,0.00,Wunderground v.1.15,2013-01-27 09:42:00,
2013-01-27 02:48:00,26.8,24.0,29.94,WNW,302,0.0,0.0,89,0.00,,,0.00,Wunderground v.1.15,2013-01-27 09:48:00,
2013-01-27 02:54:00,26.7,23.9,29.95,WNW,302,0.0,0.0,89,0.00,,,0.00,Wunderground v.1.15,2013-01-27 09:54:00,
2013-01-27 03:00:00,26.6,24.1,29.94,WNW,302,0.0,0.0,90,0.00,,,0.00,Wunderground v.1.15,2013-01-27 10:00:00,
2013-01-27 03:06:00,26.5,24.0,29.95,WNW,302,0.0,0.0,90,0.00,,,0.00,Wunderground v.1.15,2013-01-27 10:06:00,
2013-01-27 03:12:00,26.4,23.9,29.95,WNW,302,0.0,0.0,90,0.00,,,0.00,Wunderground v.1.15,2013-01-27 10:12:00,
2013-01-27 03:18:00,26.1,23.6,29.95,WNW,302,0.0,0.0,90,0.00,,,0.00,Wunderground v.1.15,2013-01-27 10:18:00,
2013-01-27 03:24:00,26.1,23.6,29.95,WNW,302,0.0,0.0,90,0.00,,,0.00,Wunderground v.1.15,2013-01-27 10:24:00,
2013-01-27 03:29:00,26.1,23.8,29.94,WNW,302,0.0,0.0,91,0.00,,,0.00,Wunderground v.1.15,2013-01-27 10:29:00,
2013-01-27 03:35:00,26.1,23.8,29.94,WNW,302,0.0,0.0,91,0.00,,,0.00,Wunderground v.1.15,2013-01-27 10:35:00,
2013-01-27 03:40:00,26.2,23.9,29.94,WNW,302,0.0,0.0,91,0.00,,,0.00,Wunderground v.1.15,2013-01-27 10:40:00,
2013-01-27 03:46:00,26.3,24.0,29.94,WNW,302,0.0,0.0,91,0.00,,,0.00,Wunderground v.1.15,2013-01-27 10:46:00,
2013-01-27 03:51:00,26.4,23.9,29.94,WNW,302,0.0,1.0,90,0.00,,,0.00,Wunderground v.1.15,2013-01-27 10:51:00,
2013-01-27 03:57:00,26.5,23.7,29.94,WNW,302,1.0,2.0,89,0.00,,,0.00,Wunderground v.1.15,2013-01-27 10:57:00,
2013-01-27 04:03:00,26.6,23.8,29.94,WNW,302,1.0,1.0,89,0.00,,,0.00,Wunderground v.1.15,2013-01-27 11:03:00,
2013-01-27 04:08:00,26.7,23.6,29.95,WNW,297,1.0,1.0,88,0.00,,,0.00,Wunderground v.1.15,2013-01-27 11:08:00,
2013-01-27 04:14:00,26.6,23.5,29.95,WNW,297,0.0,1.0,88,0.00,,,0.00,Wunderground v.1.15,2013-01-27 11:14:00,
2013-01-27 04:20:00,26.4,23.3,29.95,NW,311,0.0,0.0,88,0.00,,,0.00,Wunderground v.1.15,2013-01-27 11:20:00,
2013-01-27 04:26:00,26.2,23.4,29.95,NW,311,0.0,0.0,89,0.00,,,0.00,Wunderground v.1.15,2013-01-27 11:26:00,
2013-01-27 04:31:00,26.2,23.4,29.95,NW,311,0.0,0.0,89,0.00,,,0.00,Wunderground v.1.15,2013-01-27 11:31:00,
2013-01-27 04:37:00,26.1,23.3,29.95,NW,311,0.0,0.0,89,0.00,,,0.00,Wunderground v.1.15,2013-01-27 11:37:00,
2013-01-27 04:43:00,26.1,23.6,29.95,NW,311,0.0,0.0,90,0.00,,,0.00,Wunderground v.1.15,2013-01-27 11:43:00,
2013-01-27 04:48:00,26.0,23.5,29.95,NW,311,0.0,0.0,90,0.00,,,0.00,Wunderground v.1.15,2013-01-27 11:48:00,
2013-01-27 04:54:00,26.0,23.5,29.95,NW,311,0.0,0.0,90,0.00,,,0.00,Wunderground v.1.15,2013-01-27 11:54:00,
2013-01-27 05:00:00,25.9,23.4,29.95,NW,311,0.0,0.0,90,0.00,,,0.00,Wunderground v.1.15,2013-01-27 12:00:00,
2013-01-27 05:05:00,25.8,23.5,29.96,NW,311,0.0,0.0,91,0.00,,,0.00,Wunderground v.1.15,2013-01-27 12:05:00,
2013-01-27 05:11:00,25.8,23.5,29.95,NW,311,0.0,0.0,91,0.00,,,0.00,Wunderground v.1.15,2013-01-27 12:11:00,
2013-01-27 05:16:00,25.8,23.5,29.95,NW,311,0.0,0.0,91,0.00,,,0.00,Wunderground v.1.15,2013-01-27 12:16:00,
2013-01-27 05:22:00,25.8,23.5,29.95,NW,311,0.0,0.0,91,0.00,,,0.00,Wunderground v.1.15,2013-01-27 12:22:00,
2013-01-27 05:28:00,25.8,23.5,29.95,NW,311,0.0,0.0,91,0.00,,,0.00,Wunderground v.1.15,2013-01-27 12:28:00,
2013-01-27 05:34:00,25.9,23.9,29.95,NW,311,0.0,1.0,92,0.00,,,0.00,Wunderground v.1.15,2013-01-27 12:34:00,
2013-01-27 05:39:00,25.9,23.6,29.96,NW,311,0.0,1.0,91,0.00,,,0.00,Wunderground v.1.15,2013-01-27 12:39:00,
2013-01-27 05:45:00,25.8,23.5,29.96,NW,311,0.0,0.0,91,0.00,,,0.00,Wunderground v.1.15,2013-01-27 12:45:00,
2013-01-27 05:51:00,25.8,23.5,29.96,NW,311,0.0,0.0,91,0.00,,,0.00,Wunderground v.1.15,2013-01-27 12:51:00,
2013-01-27 05:56:00,25.7,23.4,29.96,NW,311,0.0,0.0,91,0.00,,,0.00,Wunderground v.1.15,2013-01-27 12:56:00,
2013-01-27 06:02:00,25.7,23.4,29.96,NW,311,0.0,0.0,91,0.00,,,0.00,Wunderground v.1.15,2013-01-27 13:02:00,
2013-01-27 06:08:00,25.7,23.4,29.96,NW,311,0.0,0.0,91,0.00,,,0.00,Wunderground v.1.15,2013-01-27 13:08:00,
2013-01-27 06:14:00,25.7,23.4,29.95,NW,311,0.0,0.0,91,0.00,,,0.00,Wunderground v.1.15,2013-01-27 13:14:00,
2013-01-27 06:19:00,25.7,23.4,29.95,NW,311,0.0,0.0,91,0.00,,,0.00,Wunderground v.1.15,2013-01-27 13:19:00,
2013-01-27 06:25:00,25.7,23.4,29.95,NW,311,0.0,0.0,91,0.00,,,0.00,Wunderground v.1.15,2013-01-27 13:25:00,
2013-01-27 06:31:00,25.8,23.8,29.95,NW,311,0.0,0.0,92,0.00,,,0.00,Wunderground v.1.15,2013-01-27 13:31:00,
2013-01-27 06:36:00,25.8,23.5,29.95,NW,311,0.0,0.0,91,0.00,,,0.00,Wunderground v.1.15,2013-01-27 13:36:00,
2013-01-27 06:42:00,25.8,23.5,29.95,NW,311,0.0,1.0,91,0.00,,,0.00,Wunderground v.1.15,2013-01-27 13:42:00,
2013-01-27 06:48:00,25.9,23.6,29.96,NW,311,1.0,2.0,91,0.00,,,0.00,Wunderground v.1.15,2013-01-27 13:48:00,
2013-01-27 06:54:00,26.0,23.7,29.96,NW,311,1.0,1.0,91,0.00,,,0.00,Wunderground v.1.15,2013-01-27 13:54:00,
2013-01-27 06:59:00,25.9,23.6,29.96,NW,311,0.0,1.0,91,0.00,,,0.00,Wunderground v.1.15,2013-01-27 13:59:00,
2013-01-27 07:05:00,25.9,23.6,29.96,NW,311,0.0,0.0,91,0.00,,,0.00,Wunderground v.1.15,2013-01-27 14:05:00,
2013-01-27 07:11:00,26.0,23.7,29.96,NW,311,0.0,0.0,91,0.00,,,0.00,Wunderground v.1.15,2013-01-27 14:11:00,
2013-01-27 07:17:00,26.1,23.8,29.96,NW,311,0.0,0.0,91,0.00,,,0.00,Wunderground v.1.15,2013-01-27 14:17:00,
2013-01-27 07:23:00,26.3,24.0,29.96,NW,311,0.0,0.0,91,0.00,,,0.00,Wunderground v.1.15,2013-01-27 14:23:00,
2013-01-27 07:29:00,26.5,24.2,29.96,NW,311,0.0,0.0,91,0.00,,,0.00,Wunderground v.1.15,2013-01-27 14:29:00,
2013-01-27 07:35:00,26.5,24.2,29.96,NW,311,0.0,0.0,91,0.00,,,0.00,Wunderground v.1.15,2013-01-27 14:35:00,
2013-01-27 07:41:00,26.3,24.0,29.96,NW,311,0.0,0.0,91,0.00,,,0.00,Wunderground v.1.15,2013-01-27 14:41:00,
2013-01-27 07:46:00,26.3,24.0,29.96,NW,311,0.0,0.0,91,0.00,,,0.00,Wunderground v.1.15,2013-01-27 14:46:00,
2013-01-27 07:51:00,26.2,23.9,29.96,NW,311,0.0,0.0,91,0.00,,,0.00,Wunderground v.1.15,2013-01-27 14:51:00,
2013-01-27 07:57:00,26.1,23.8,29.97,NW,311,0.0,0.0,91,0.00,,,0.00,Wunderground v.1.15,2013-01-27 14:57:00,
2013-01-27 08:03:00,26.1,23.8,29.97,NW,311,0.0,0.0,91,0.00,,,0.00,Wunderground v.1.15,2013-01-27 15:03:00,
2013-01-27 08:08:00,26.0,23.7,29.97,NW,311,0.0,0.0,91,0.00,,,0.00,Wunderground v.1.15,2013-01-27 15:08:00,
2013-01-27 08:14:00,26.0,23.7,29.96,NW,311,0.0,0.0,91,0.00,,,0.00,Wunderground v.1.15,2013-01-27 15:14:00,
2013-01-27 08:20:00,25.9,23.6,29.97,NW,311,0.0,0.0,91,0.00,,,0.00,Wunderground v.1.15,2013-01-27 15:20:00,
2013-01-27 08:26:00,26.0,23.7,29.97,NW,311,0.0,0.0,91,0.00,,,0.00,Wunderground v.1.15,2013-01-27 15:26:00,
2013-01-27 08:32:00,26.0,23.7,29.97,NW,311,0.0,0.0,91,0.00,,,0.00,Wunderground v.1.15,2013-01-27 15:32:00,
2013-01-27 08:38:00,26.1,23.8,29.97,NW,311,0.0,0.0,91,0.00,,,0.00,Wunderground v.1.15,2013-01-27 15:38:00,
2013-01-27 08:43:00,26.1,23.8,29.97,NW,311,0.0,0.0,91,0.00,,,0.00,Wunderground v.1.15,2013-01-27 15:43:00,
2013-01-27 08:49:00,26.2,23.9,29.97,NW,311,0.0,1.0,91,0.00,,,0.00,Wunderground v.1.15,2013-01-27 15:49:00,
2013-01-27 08:55:00,26.3,24.0,29.97,NW,311,0.0,0.0,91,0.00,,,0.00,Wunderground v.1.15,2013-01-27 15:55:00,
2013-01-27 09:01:00,26.3,24.0,29.97,NW,311,0.0,0.0,91,0.00,,,0.00,Wunderground v.1.15,2013-01-27 16:01:00,
2013-01-27 09:06:00,26.4,24.4,29.97,NW,311,1.0,2.0,92,0.00,,,0.00,Wunderground v.1.15,2013-01-27 16:06:00,
2013-01-27 09:12:00,26.4,24.4,29.97,NW,311,1.0,1.0,92,0.00,,,0.00,Wunderground v.1.15,2013-01-27 16:12:00,
2013-01-27 09:17:00,26.4,24.4,29.97,NW,311,0.0,1.0,92,0.00,,,0.00,Wunderground v.1.15,2013-01-27 16:17:00,
2013-01-27 09:23:00,26.7,24.7,29.97,NW,311,0.0,0.0,92,0.00,,,0.00,Wunderground v.1.15,2013-01-27 16:23:00,
2013-01-27 09:29:00,27.0,24.7,29.97,NW,311,0.0,0.0,91,0.00,,,0.00,Wunderground v.1.15,2013-01-27 16:29:00,
2013-01-27 09:35:00,27.1,25.1,29.98,NW,311,0.0,0.0,92,0.00,,,0.00,Wunderground v.1.15,2013-01-27 16:35:00,
2013-01-27 09:40:00,27.2,24.9,29.98,NW,311,0.0,0.0,91,0.00,,,0.00,Wunderground v.1.15,2013-01-27 16:40:00,
2013-01-27 09:46:00,27.5,25.2,29.98,NW,311,0.0,0.0,91,0.00,,,0.00,Wunderground v.1.15,2013-01-27 16:46:00,
2013-01-27 09:52:00,27.8,25.5,29.98,NW,311,0.0,0.0,91,0.00,,,0.00,Wunderground v.1.15,2013-01-27 16:52:00,
2013-01-27 09:57:00,28.0,25.7,29.98,NW,311,0.0,0.0,91,0.00,,,0.00,Wunderground v.1.15,2013-01-27 16:57:00,
2013-01-27 10:03:00,28.1,25.5,29.98,NW,311,0.0,1.0,90,0.00,,,0.00,Wunderground v.1.15,2013-01-27 17:03:00,
2013-01-27 10:09:00,28.3,25.7,29.98,NW,311,0.0,1.0,90,0.00,,,0.00,Wunderground v.1.15,2013-01-27 17:09:00,
2013-01-27 10:15:00,28.4,25.8,29.98,NW,311,0.0,0.0,90,0.00,,,0.00,Wunderground v.1.15,2013-01-27 17:15:00,
2013-01-27 10:20:00,28.7,25.3,29.98,NW,311,0.0,0.0,87,0.00,,,0.00,Wunderground v.1.15,2013-01-27 17:20:00,
2013-01-27 10:26:00,29.0,25.6,29.98,NW,311,0.0,1.0,87,0.00,,,0.00,Wunderground v.1.15,2013-01-27 17:26:00,
2013-01-27 10:32:00,29.2,25.5,29.99,WNW,300,1.0,2.0,86,0.00,,,0.00,Wunderground v.1.15,2013-01-27 17:32:00,
2013-01-27 10:38:00,29.4,26.0,29.99,WNW,300,0.0,2.0,87,0.00,,,0.00,Wunderground v.1.15,2013-01-27 17:38:00,
2013-01-27 10:44:00,29.5,26.1,29.99,WNW,300,0.0,0.0,87,0.00,,,0.00,Wunderground v.1.15,2013-01-27 17:44:00,
2013-01-27 10:49:00,29.6,25.9,29.99,WNW,300,0.0,0.0,86,0.00,,,0.00,Wunderground v.1.15,2013-01-27 17:49:00,
2013-01-27 10:55:00,29.8,25.8,29.99,WNW,300,0.0,0.0,85,0.00,,,0.00,Wunderground v.1.15,2013-01-27 17:55:00,
2013-01-27 11:01:00,30.0,26.0,29.99,WNW,300,0.0,0.0,85,0.00,,,0.00,Wunderground v.1.15,2013-01-27 18:01:00,
2013-01-27 11:07:00,30.3,26.0,29.99,WNW,300,0.0,0.0,84,0.00,,,0.00,Wunderground v.1.15,2013-01-27 18:07:00,
2013-01-27 11:13:00,30.5,26.0,29.99,WNW,300,0.0,0.0,83,0.00,,,0.00,Wunderground v.1.15,2013-01-27 18:13:00,
2013-01-27 11:19:00,30.9,26.6,29.99,WNW,300,0.0,0.0,84,0.00,,,0.00,Wunderground v.1.15,2013-01-27 18:19:00,
2013-01-27 11:24:00,31.2,26.6,29.99,WNW,300,0.0,0.0,83,0.00,,,0.00,Wunderground v.1.15,2013-01-27 18:24:00,
2013-01-27 11:30:00,31.8,26.9,29.99,WNW,300,0.0,0.0,82,0.00,,,0.00,Wunderground v.1.15,2013-01-27 18:30:00,
2013-01-27 11:36:00,32.0,27.1,29.99,WNW,300,0.0,0.0,82,0.00,,,0.00,Wunderground v.1.15,2013-01-27 18:36:00,
2013-01-27 11:41:00,31.6,27.6,29.99,WNW,300,0.0,0.0,85,0.00,,,0.00,Wunderground v.1.15,2013-01-27 18:41:00,
2013-01-27 11:47:00,31.3,27.0,29.99,WNW,300,0.0,1.0,84,0.00,,,0.00,Wunderground v.1.15,2013-01-27 18:47:00,
2013-01-27 11:53:00,31.1,27.1,29.99,WNW,300,0.0,0.0,85,0.00,,,0.00,Wunderground v.1.15,2013-01-27 18:53:00,
2013-01-27 11:59:00,31.1,26.8,29.99,WNW,300,0.0,0.0,84,0.00,,,0.00,Wunderground v.1.15,2013-01-27 18:59:00,
2013-01-27 12:05:00,30.8,26.5,29.99,WNW,300,0.0,0.0,84,0.00,,,0.00,Wunderground v.1.15,2013-01-27 19:05:00,
2013-01-27 12:11:00,30.7,26.1,29.99,WNW,300,0.0,0.0,83,0.00,,,0.00,Wunderground v.1.15,2013-01-27 19:11:00,
2013-01-27 12:16:00,30.9,26.9,29.99,WNW,300,0.0,0.0,85,0.00,,,0.00,Wunderground v.1.15,2013-01-27 19:16:00,
2013-01-27 12:22:00,31.0,26.7,29.98,WNW,303,0.0,0.0,84,0.00,,,0.00,Wunderground v.1.15,2013-01-27 19:22:00,
2013-01-27 12:28:00,31.2,27.2,29.98,WNW,303,0.0,0.0,85,0.00,,,0.00,Wunderground v.1.15,2013-01-27 19:28:00,
2013-01-27 12:34:00,31.9,27.9,29.98,SW,232,0.0,2.0,85,0.00,,,0.00,Wunderground v.1.15,2013-01-27 19:34:00,
2013-01-27 12:39:00,32.9,27.7,29.98,South,184,2.0,3.0,81,0.00,,,0.00,Wunderground v.1.15,2013-01-27 19:39:00,
2013-01-27 12:45:00,33.7,28.2,29.98,South,172,2.0,4.0,80,0.00,,,0.00,Wunderground v.1.15,2013-01-27 19:45:00,
2013-01-27 12:51:00,34.2,28.4,29.97,South,170,1.0,1.0,79,0.00,,,0.00,Wunderground v.1.15,2013-01-27 19:51:00,
2013-01-27 12:57:00,34.5,27.7,29.97,WSW,244,1.0,3.0,76,0.00,,,0.00,Wunderground v.1.15,2013-01-27 19:57:00,
2013-01-27 13:03:00,34.7,27.3,29.97,SSW,194,2.0,2.0,74,0.00,,,0.00,Wunderground v.1.15,2013-01-27 20:03:00,
2013-01-27 13:08:00,34.8,27.7,29.97,South,182,1.0,2.0,75,0.00,,,0.00,Wunderground v.1.15,2013-01-27 20:08:00,
2013-01-27 13:14:00,34.9,27.8,29.97,South,171,1.0,5.0,75,0.00,,,0.00,Wunderground v.1.15,2013-01-27 20:14:00,
2013-01-27 13:20:00,34.8,27.7,29.97,East,93,2.0,2.0,75,0.00,,,0.00,Wunderground v.1.15,2013-01-27 20:20:00,
2013-01-27 13:26:00,33.8,27.7,29.97,SE,145,2.0,4.0,78,0.00,,,0.00,Wunderground v.1.15,2013-01-27 20:26:00,
2013-01-27 13:32:00,33.4,27.9,29.97,SE,143,1.0,2.0,80,0.00,,,0.00,Wunderground v.1.15,2013-01-27 20:32:00,
2013-01-27 13:37:00,33.5,28.3,29.97,SE,143,0.0,2.0,81,0.00,,,0.00,Wunderground v.1.15,2013-01-27 20:37:00,
2013-01-27 13:43:00,33.4,28.5,29.96,SE,134,1.0,2.0,82,0.00,,,0.00,Wunderground v.1.15,2013-01-27 20:43:00,
2013-01-27 13:48:00,32.6,28.6,29.96,South,173,1.0,2.0,85,0.00,,,0.00,Wunderground v.1.15,2013-01-27 20:48:00,
2013-01-27 13:54:00,32.8,29.1,29.96,South,173,0.0,2.0,86,0.00,,,0.00,Wunderground v.1.15,2013-01-27 20:54:00,
2013-01-27 14:00:00,33.8,29.8,29.95,South,179,1.0,1.0,85,0.00,,,0.00,Wunderground v.1.15,2013-01-27 21:00:00,
2013-01-27 14:06:00,33.8,28.9,29.95,South,190,1.0,2.0,82,0.00,,,0.00,Wunderground v.1.15,2013-01-27 21:06:00,
2013-01-27 14:12:00,33.9,28.7,29.95,South,190,1.0,3.0,81,0.00,,,0.00,Wunderground v.1.15,2013-01-27 21:12:00,
2013-01-27 14:17:00,34.0,28.8,29.95,SW,236,1.0,3.0,81,0.00,,,0.00,Wunderground v.1.15,2013-01-27 21:17:00,
2013-01-27 14:23:00,34.3,28.8,29.95,SE,132,1.0,2.0,80,0.00,,,0.00,Wunderground v.1.15,2013-01-27 21:23:00,
2013-01-27 14:29:00,35.2,29.3,29.95,NW,315,1.0,3.0,79,0.00,,,0.00,Wunderground v.1.15,2013-01-27 21:29:00,
2013-01-27 14:35:00,35.4,29.2,29.95,WNW,295,1.0,2.0,78,0.00,,,0.00,Wunderground v.1.15,2013-01-27 21:35:00,
2013-01-27 14:40:00,35.2,29.0,29.94,WNW,302,1.0,1.0,78,0.00,,,0.00,Wunderground v.1.15,2013-01-27 21:40:00,
2013-01-27 14:46:00,33.8,28.9,29.95,West,274,1.0,3.0,82,0.00,,,0.00,Wunderground v.1.15,2013-01-27 21:46:00,
2013-01-27 14:52:00,32.9,28.9,29.95,South,186,1.0,2.0,85,0.00,,,0.00,Wunderground v.1.15,2013-01-27 21:52:00,
2013-01-27 14:57:00,32.8,29.1,29.94,South,185,1.0,2.0,86,0.00,,,0.00,Wunderground v.1.15,2013-01-27 21:57:00,
2013-01-27 15:03:00,33.1,29.1,29.94,South,185,0.0,1.0,85,0.00,,,0.00,Wunderground v.1.15,2013-01-27 22:03:00,
2013-01-27 15:09:00,33.5,28.6,29.94,South,185,0.0,1.0,82,0.00,,,0.01,Wunderground v.1.15,2013-01-27 22:09:00,
2013-01-27 15:15:00,33.7,29.1,29.94,South,169,0.0,8.0,83,0.00,,,0.01,Wunderground v.1.15,2013-01-27 22:15:00,
2013-01-27 15:20:00,33.5,28.0,29.94,South,174,1.0,4.0,80,0.00,,,0.01,Wunderground v.1.15,2013-01-27 22:20:00,
2013-01-27 15:26:00,33.4,27.6,29.94,South,180,2.0,4.0,79,0.00,,,0.01,Wunderground v.1.15,2013-01-27 22:26:00,
2013-01-27 15:32:00,33.6,28.1,29.94,South,173,2.0,4.0,80,0.00,,,0.01,Wunderground v.1.15,2013-01-27 22:32:00,
2013-01-27 15:38:00,33.0,28.1,29.94,South,182,1.0,4.0,82,0.00,,,0.01,Wunderground v.1.15,2013-01-27 22:38:00,
2013-01-27 15:44:00,32.7,28.1,29.94,South,188,0.0,2.0,83,0.00,,,0.01,Wunderground v.1.15,2013-01-27 22:44:00,
2013-01-27 15:49:00,32.9,28.0,29.94,SSE,148,1.0,4.0,82,0.00,,,0.01,Wunderground v.1.15,2013-01-27 22:49:00,
2013-01-27 15:55:00,33.0,28.7,29.94,South,175,1.0,1.0,84,0.00,,,0.01,Wunderground v.1.15,2013-01-27 22:55:00,
2013-01-27 16:00:00,32.4,28.4,29.94,South,178,1.0,1.0,85,0.00,,,0.01,Wunderground v.1.15,2013-01-27 23:00:00,
2013-01-27 16:06:00,32.1,28.4,29.95,South,178,1.0,2.0,86,0.00,,,0.01,Wunderground v.1.15,2013-01-27 23:06:00,
2013-01-27 16:12:00,32.0,28.0,29.95,South,188,1.0,4.0,85,0.00,,,0.01,Wunderground v.1.15,2013-01-27 23:12:00,
2013-01-27 16:18:00,31.9,27.9,29.94,South,188,1.0,4.0,85,0.00,,,0.01,Wunderground v.1.15,2013-01-27 23:18:00,
2013-01-27 16:23:00,31.7,28.0,29.95,South,188,0.0,1.0,86,0.00,,,0.01,Wunderground v.1.15,2013-01-27 23:23:00,
2013-01-27 16:29:00,31.5,27.8,29.95,ESE,112,1.0,3.0,86,0.00,,,0.01,Wunderground v.1.15,2013-01-27 23:29:00,
2013-01-27 16:34:00,32.1,27.5,29.94,ESE,112,1.0,1.0,83,0.00,,,0.01,Wunderground v.1.15,2013-01-27 23:34:00,
2013-01-27 16:40:00,31.8,27.8,29.94,ESE,112,0.0,0.0,85,0.00,,,0.01,Wunderground v.1.15,2013-01-27 23:40:00,
2013-01-27 16:46:00,31.7,27.4,29.95,ESE,112,0.0,0.0,84,0.00,,,0.01,Wunderground v.1.15,2013-01-27 23:46:00,
2013-01-27 16:51:00,31.6,27.0,29.95,ESE,112,0.0,0.0,83,0.00,,,0.01,Wunderground v.1.15,2013-01-27 23:51:00,
2013-01-27 16:57:00,31.5,26.9,29.95,ESE,112,0.0,1.0,83,0.00,,,0.01,Wunderground v.1.15,2013-01-27 23:57:00,
2013-01-27 17:03:00,31.4,26.8,29.95,ESE,112,0.0,0.0,83,0.00,,,0.01,Wunderground v.1.15,2013-01-28 00:03:00,
2013-01-27 17:09:00,31.4,26.5,29.95,ESE,112,0.0,0.0,82,0.00,,,0.01,Wunderground v.1.15,2013-01-28 00:09:00,
2013-01-27 17:15:00,31.4,26.5,29.95,ESE,112,0.0,0.0,82,0.00,,,0.01,Wunderground v.1.15,2013-01-28 00:15:00,
2013-01-27 17:20:00,31.3,26.1,29.96,ESE,112,0.0,0.0,81,0.00,,,0.01,Wunderground v.1.15,2013-01-28 00:20:00,
2013-01-27 17:26:00,31.2,25.7,29.96,ESE,112,0.0,0.0,80,0.00,,,0.01,Wunderground v.1.15,2013-01-28 00:26:00,
2013-01-27 17:32:00,31.1,25.3,29.96,ESE,112,0.0,0.0,79,0.00,,,0.01,Wunderground v.1.15,2013-01-28 00:32:00,
2013-01-27 17:38:00,30.9,25.2,29.96,ESE,112,0.0,0.0,79,0.00,,,0.01,Wunderground v.1.15,2013-01-28 00:38:00,
2013-01-27 17:44:00,30.7,25.3,29.96,ESE,112,0.0,0.0,80,0.00,,,0.01,Wunderground v.1.15,2013-01-28 00:44:00,
2013-01-27 17:50:00,30.6,25.2,29.96,ESE,112,0.0,0.0,80,0.00,,,0.01,Wunderground v.1.15,2013-01-28 00:50:00,
2013-01-27 17:56:00,30.3,24.9,29.96,ESE,112,0.0,0.0,80,0.00,,,0.01,Wunderground v.1.15,2013-01-28 00:56:00,
2013-01-27 18:02:00,30.0,24.6,29.96,ESE,112,0.0,0.0,80,0.00,,,0.01,Wunderground v.1.15,2013-01-28 01:02:00,
2013-01-27 18:07:00,29.9,24.5,29.96,ESE,112,0.0,2.0,80,0.00,,,0.01,Wunderground v.1.15,2013-01-28 01:07:00,
2013-01-27 18:13:00,29.8,24.7,29.97,SSW,200,0.0,1.0,81,0.00,,,0.01,Wunderground v.1.15,2013-01-28 01:13:00,
2013-01-27 18:19:00,29.6,24.5,29.97,SSW,200,0.0,1.0,81,0.00,,,0.01,Wunderground v.1.15,2013-01-28 01:19:00,
2013-01-27 18:25:00,29.5,24.4,29.97,SSW,200,0.0,0.0,81,0.00,,,0.01,Wunderground v.1.15,2013-01-28 01:25:00,
2013-01-27 18:30:00,29.4,24.3,29.97,SSW,200,0.0,1.0,81,0.00,,,0.01,Wunderground v.1.15,2013-01-28 01:30:00,
2013-01-27 18:36:00,29.3,24.5,29.97,SSW,198,1.0,3.0,82,0.00,,,0.01,Wunderground v.1.15,2013-01-28 01:36:00,
2013-01-27 18:41:00,29.4,24.9,29.97,SW,228,1.0,1.0,83,0.00,,,0.01,Wunderground v.1.15,2013-01-28 01:41:00,
2013-01-27 18:47:00,29.3,24.8,29.98,SSW,193,1.0,2.0,83,0.00,,,0.01,Wunderground v.1.15,2013-01-28 01:47:00,
2013-01-27 18:53:00,29.3,25.1,29.98,SSW,193,0.0,1.0,84,0.00,,,0.01,Wunderground v.1.15,2013-01-28 01:53:00,
2013-01-27 18:59:00,29.3,25.1,29.98,SSW,193,0.0,2.0,84,0.00,,,0.01,Wunderground v.1.15,2013-01-28 01:59:00,
2013-01-27 19:05:00,29.3,25.1,29.98,SSW,198,1.0,3.0,84,0.00,,,0.01,Wunderground v.1.15,2013-01-28 02:05:00,
2013-01-27 19:11:00,29.4,25.2,29.98,SSW,198,0.0,1.0,84,0.00,,,0.01,Wunderground v.1.15,2013-01-28 02:11:00,
2013-01-27 19:17:00,29.4,25.2,29.97,SSW,198,0.0,1.0,84,0.00,,,0.01,Wunderground v.1.15,2013-01-28 02:17:00,
2013-01-27 19:22:00,29.6,25.4,29.98,SSW,198,0.0,0.0,84,0.00,,,0.01,Wunderground v.1.15,2013-01-28 02:22:00,
2013-01-27 19:28:00,29.6,25.4,29.98,SSW,198,0.0,0.0,84,0.00,,,0.01,Wunderground v.1.15,2013-01-28 02:28:00,
2013-01-27 19:34:00,29.6,25.4,29.98,SSW,198,0.0,0.0,84,0.00,,,0.01,Wunderground v.1.15,2013-01-28 02:34:00,
2013-01-27 19:39:00,29.5,25.0,29.98,SSW,198,0.0,1.0,83,0.00,,,0.01,Wunderground v.1.15,2013-01-28 02:39:00,
2013-01-27 19:45:00,29.5,25.0,29.98,SSW,198,0.0,1.0,83,0.00,,,0.01,Wunderground v.1.15,2013-01-28 02:45:00,
2013-01-27 19:51:00,29.4,24.9,29.98,SSW,192,0.0,0.0,83,0.00,,,0.01,Wunderground v.1.15,2013-01-28 02:51:00,
2013-01-27 19:57:00,29.4,25.2,29.98,SSW,192,0.0,1.0,84,0.00,,,0.01,Wunderground v.1.15,2013-01-28 02:57:00,
2013-01-27 20:02:00,29.3,24.5,29.98,SSW,192,0.0,2.0,82,0.00,,,0.01,Wunderground v.1.15,2013-01-28 03:02:00,
2013-01-27 20:08:00,29.4,24.9,29.98,SSW,192,0.0,2.0,83,0.00,,,0.01,Wunderground v.1.15,2013-01-28 03:08:00,
2013-01-27 20:13:00,29.5,24.7,29.97,SSW,192,0.0,0.0,82,0.00,,,0.01,Wunderground v.1.15,2013-01-28 03:13:00,
2013-01-27 20:19:00,29.6,24.8,29.97,SSW,192,0.0,0.0,82,0.00,,,0.01,Wunderground v.1.15,2013-01-28 03:19:00,
2013-01-27 20:25:00,29.7,24.6,29.97,South,177,0.0,2.0,81,0.00,,,0.01,Wunderground v.1.15,2013-01-28 03:25:00,
2013-01-27 20:31:00,29.8,24.7,29.98,South,173,0.0,1.0,81,0.00,,,0.01,Wunderground v.1.15,2013-01-28 03:31:00,
2013-01-27 20:37:00,29.9,24.8,29.98,SW,220,0.0,1.0,81,0.00,,,0.01,Wunderground v.1.15,2013-01-28 03:37:00,
2013-01-27 20:42:00,29.8,24.7,29.98,SW,220,0.0,0.0,81,0.00,,,0.01,Wunderground v.1.15,2013-01-28 03:42:00,
2013-01-27 20:48:00,29.7,24.9,29.98,SW,220,0.0,0.0,82,0.00,,,0.01,Wunderground v.1.15,2013-01-28 03:48:00,
2013-01-27 20:54:00,29.6,24.8,29.98,SSW,193,0.0,1.0,82,0.00,,,0.01,Wunderground v.1.15,2013-01-28 03:54:00,
2013-01-27 20:59:00,29.4,24.6,29.98,SSW,193,0.0,1.0,82,0.00,,,0.01,Wunderground v.1.15,2013-01-28 03:59:00,
2013-01-27 21:04:00,29.4,24.6,29.98,SSW,193,0.0,0.0,82,0.00,,,0.01,Wunderground v.1.15,2013-01-28 04:04:00,
2013-01-27 21:10:00,29.2,24.7,29.98,SSW,193,0.0,0.0,83,0.00,,,0.01,Wunderground v.1.15,2013-01-28 04:10:00,
2013-01-27 21:15:00,29.0,24.8,29.98,SSW,193,0.0,1.0,84,0.00,,,0.01,Wunderground v.1.15,2013-01-28 04:15:00,
2013-01-27 21:21:00,28.7,24.8,29.98,SSW,193,0.0,0.0,85,0.00,,,0.01,Wunderground v.1.15,2013-01-28 04:21:00,
2013-01-27 21:27:00,28.5,24.6,29.98,SW,219,0.0,0.0,85,0.00,,,0.01,Wunderground v.1.15,2013-01-28 04:27:00,
2013-01-27 21:32:00,28.3,24.6,29.98,SW,219,0.0,0.0,86,0.00,,,0.01,Wunderground v.1.15,2013-01-28 04:32:00,
2013-01-27 21:38:00,28.1,24.5,29.98,SW,219,0.0,0.0,86,0.00,,,0.01,Wunderground v.1.15,2013-01-28 04:38:00,
2013-01-27 21:44:00,27.9,24.5,29.98,SW,219,0.0,1.0,87,0.00,,,0.01,Wunderground v.1.15,2013-01-28 04:44:00,
2013-01-27 21:50:00,27.8,24.4,29.98,SW,219,0.0,0.0,87,0.00,,,0.01,Wunderground v.1.15,2013-01-28 04:50:00,
2013-01-27 21:56:00,27.5,24.1,29.98,SW,219,0.0,0.0,87,0.00,,,0.01,Wunderground v.1.15,2013-01-28 04:56:00,
2013-01-27 22:00:00,27.3,23.9,29.98,SW,219,0.0,0.0,87,0.00,,,0.01,Wunderground v.1.15,2013-01-28 05:00:00,
2013-01-27 22:01:00,27.3,23.9,29.98,SW,219,0.0,0.0,87,0.00,,,0.01,Wunderground v.1.15,2013-01-28 05:01:00,
2013-01-27 22:03:00,27.2,23.8,29.98,SW,219,0.0,1.0,87,0.00,,,0.01,Wunderground v.1.15,2013-01-28 05:03:00,
2013-01-27 22:06:00,27.1,23.7,29.98,SW,219,0.0,1.0,87,0.00,,,0.01,Wunderground v.1.15,2013-01-28 05:06:00,
2013-01-27 22:12:00,27.0,23.6,29.98,SW,219,0.0,1.0,87,0.00,,,0.01,Wunderground v.1.15,2013-01-28 05:12:00,
2013-01-27 22:17:00,26.9,23.5,29.98,SW,219,0.0,1.0,87,0.00,,,0.01,Wunderground v.1.15,2013-01-28 05:17:00,
2013-01-27 22:23:00,26.9,23.5,29.98,SW,219,0.0,0.0,87,0.00,,,0.01,Wunderground v.1.15,2013-01-28 05:23:00,
2013-01-27 22:29:00,26.9,23.5,29.98,SW,219,0.0,0.0,87,0.00,,,0.01,Wunderground v.1.15,2013-01-28 05:29:00,
2013-01-27 22:35:00,26.9,23.5,29.98,SW,219,0.0,0.0,87,0.00,,,0.01,Wunderground v.1.15,2013-01-28 05:35:00,
2013-01-27 22:41:00,26.8,23.4,29.98,SW,219,0.0,0.0,87,0.00,,,0.01,Wunderground v.1.15,2013-01-28 05:41:00,
2013-01-27 22:46:00,26.8,23.4,29.98,SW,219,0.0,0.0,87,0.00,,,0.01,Wunderground v.1.15,2013-01-28 05:46:00,
2013-01-27 22:52:00,26.6,23.3,29.98,SW,219,0.0,1.0,87,0.00,,,0.01,Wunderground v.1.15,2013-01-28 05:52:00,
2013-01-27 22:58:00,26.4,23.1,29.98,SW,219,0.0,1.0,87,0.00,,,0.01,Wunderground v.1.15,2013-01-28 05:58:00,
2013-01-27 23:04:00,26.4,23.1,29.98,SW,219,0.0,0.0,87,0.00,,,0.01,Wunderground v.1.15,2013-01-28 06:04:00,
2013-01-27 23:10:00,26.3,23.2,29.98,SW,219,0.0,0.0,88,0.00,,,0.01,Wunderground v.1.15,2013-01-28 06:10:00,
2013-01-27 23:16:00,26.3,23.2,29.98,SW,219,0.0,0.0,88,0.00,,,0.01,Wunderground v.1.15,2013-01-28 06:16:00,
2013-01-27 23:22:00,26.3,23.2,29.98,SW,219,0.0,0.0,88,0.00,,,0.01,Wunderground v.1.15,2013-01-28 06:22:00,
2013-01-27 23:27:00,26.4,23.3,29.98,SW,219,0.0,0.0,88,0.00,,,0.01,Wunderground v.1.15,2013-01-28 06:27:00,
2013-01-27 23:33:00,26.5,23.4,29.98,SW,219,0.0,0.0,88,0.00,,,0.01,Wunderground v.1.15,2013-01-28 06:33:00,
2013-01-27 23:39:00,26.6,23.5,29.98,SW,219,0.0,0.0,88,0.00,,,0.01,Wunderground v.1.15,2013-01-28 06:39:00,
2013-01-27 23:45:00,26.6,23.5,29.98,SW,219,0.0,0.0,88,0.00,,,0.01,Wunderground v.1.15,2013-01-28 06:45:00,
2013-01-27 23:51:00,26.7,23.4,29.98,SW,219,0.0,0.0,87,0.00,,,0.01,Wunderground v.1.15,2013-01-28 06:51:00,
2013-01-27 23:57:00,26.7,23.4,29.98,SW,219,0.0,0.0,87,0.00,,,0.01,Wunderground v.1.15,2013-01-28 06:57:00,